Probability
13 16 16 16 16 16 16 10 6 3 3 0 0 3 0 0 0 0 0 0 0 0 0 0 0 0 0 0 0 0 0 0 0 0 0 0 0 0
16 13 13 13 13 16 16 10 3 3 3 3 0 3 3 0 0 0 0 0 0 0 0 0 0 0 0 0 0 0 0 0 0 0 0 0 0 0
10 10 10 13 13 19 19 13 6 3 0 3 0 6 10 6 0 0 0 0 0 0 0 0 0 0 0 0 0 0 0 0 0 0 0 0 0 0
10 10 13 10 13 16 16 13 6 6 3 3 3 0 6 13 13 10 0 0 0 0 0 0 0 0 0 0 0 0 0 0 0 0 0 0 0 0
10 10 10 10 13 16 19 13 0 0 3 3 3 0 0 0 6 0 0 6 0 0 0 0 0 0 0 0 0 0 0 0 0 0 0 0 0 0
10 10 10 10 13 10 6 6 3 0 3 3 3 0 0 0 0 0 0 10 0 0 0 0 0 0 0 0 0 0 0 0 0 0 0 0 0 0
6 6 6 6 6 6 3 3 3 0 0 0 3 0 0 0 0 0 0 6 6 0 0 0 0 0 0 0 0 0 0 0 0 0 0 0 0 0
3 3 3 3 0 0 0 0 0 0 0 0 0 0 0 0 0 0 0 0 0 0 3 6 3 3 3 0 0 0 0 0 0 0 0 0 0 0
3 6 3 0 0 0 0 0 0 0 0 0 0 0 0 0 3 0 0 0 0 3 0 0 3 3 0 0 0 0 0 0 0 0 0 0 0 0
3 3 3 3 0 0 0 0 0 0 0 0 0 3 0 0 0 0 0 0 0 0 0 0 3 0 0 0 0 0 0 0 0 0 0 0 0 0
0 0 0 3 0 0 3 3 0 0 0 0 0 0 0 0 0 0 0 0 0 0 0 0 0 0 0 0 0 0 0 0 0 0 0 0 0 0
0 0 0 0 0 0 3 3 0 0 0 0 0 0 0 0 0 0 0 0 0 0 0 0 0 0 0 0 0 0 0 0 0 0 0 0 0 0
3 3 0 0 0 0 0 0 0 0 3 3 3 3 0 3 0 0 0 0 0 0 0 0 0 0 0 0 0 0 0 0 0 0 0 0 0 0
0 3 0 0 0 0 0 0 0 0 0 0 0 3 0 3 0 0 0 0 0 0 0 0 0 0 0 0 0 0 0 0 0 0 0 0 0 0
0 0 0 0 0 0 0 0 0 0 0 0 0 0 0 3 0 3 0 0 0 0 0 0 0 0 0 0 0 0 0 0 0 0 0 0 0 0
0 0 0 0 0 0 0 0 0 0 0 0 0 0 3 3 0 0 0 0 0 0 0 0 0 0 0 0 0 0 0 3 0 0 0 0 0 0
0 0 0 0 0 0 0 0 0 0 0 0 0 0 0 3 3 3 0 0 0 0 0 0 0 0 0 3 0 0 0 0 0 0 0 0 0 0
0 0 0 0 0 0 0 0 0 0 0 0 0 0 0 0 0 0 0 0 0 0 0 0 0 0 0 0 0 0 0 0 0 0 0 0 0 0
0 0 0 0 0 0 0 0 0 0 0 0 0 0 0 0 0 0 0 0 0 0 0 0 0 0 0 0 0 0 0 0 0 0 0 0 0 0
0 0 0 0 0 0 0 0 0 0 0 0 0 0 0 0 0 0 0 0 0 0 0 0 0 0 0 0 0 0 0 0 0 0 0 0 0 0
0 0 0 0 0 0 0 0 0 0 0 0 0 0 0 0 0 0 0 0 0 0 0 0 0 0 0 0 0 0 0 0 0 0 0 0 0 0
0 0 0 0 0 0 0 0 0 0 0 0 0 0 0 0 0 0 0 0 0 0 0 0 0 0 0 0 0 0 0 0 0 0 0 0 0 0
0 0 0 0 0 0 0 0 0 0 0 0 0 0 0 0 0 0 0 0 0 0 0 0 0 0 0 0 0 0 0 0 0 0 0 0 0 0
Height
5742 5740 5738 5737 5735 5733 5731 5730 5729 5728 5728 5727 5726 5725 5724 5724 5724 5725 5726 5726 5727 5728 5728 5729 5731 5733 5735 5737 5740 5742 5744 5747 5750 5753 5755 5758 5761 5764
5736 5734 5732 5731 5729 5727 5725 5723 5722 5721 5720 5719 5718 5717 5716 5716 5716 5716 5717 5717 5717 5718 5719 5719 5721 5723 5724 5727 5729 5732 5734 5736 5739 5741 5744 5747 5750 5753
5731 5729 5727 5725 5723 5721 5719 5718 5716 5714 5713 5712 5711 5709 5708 5708 5708 5708 5708 5708 5709 5709 5709 5710 5711 5712 5714 5716 5719 5721 5723 5725 5727 5730 5733 5736 5739 5742
5726 5724 5721 5719 5717 5716 5714 5712 5710 5708 5706 5705 5703 5702 5701 5700 5699 5699 5699 5699 5699 5700 5700 5701 5702 5703 5704 5706 5708 5710 5712 5714 5716 5719 5722 5725 5727 5730
5721 5719 5717 5714 5712 5710 5708 5706 5704 5702 5700 5698 5696 5695 5693 5692 5692 5691 5690 5690 5690 5691 5691 5692 5692 5693 5695 5696 5698 5700 5702 5704 5706 5708 5710 5713 5716 5719
5717 5715 5712 5710 5708 5706 5703 5701 5699 5696 5694 5692 5690 5688 5686 5685 5684 5683 5682 5682 5682 5681 5682 5682 5683 5684 5685 5686 5688 5689 5691 5692 5694 5697 5699 5702 5705 5708
5713 5711 5708 5706 5703 5701 5699 5696 5693 5690 5687 5685 5683 5681 5679 5677 5676 5675 5674 5673 5673 5672 5672 5672 5673 5674 5675 5675 5677 5678 5679 5681 5683 5685 5688 5690 5693 5696
5710 5707 5704 5702 5699 5696 5693 5690 5688 5685 5682 5679 5676 5674 5672 5670 5669 5667 5666 5665 5664 5664 5662 5662 5662 5663 5664 5664 5666 5667 5668 5670 5672 5674 5676 5679 5682 5685
5706 5703 5700 5697 5694 5691 5688 5685 5682 5679 5676 5673 5670 5667 5665 5663 5661 5659 5657 5656 5655 5654 5652 5652 5652 5652 5652 5653 5654 5656 5657 5659 5661 5663 5665 5667 5670 5673
5702 5699 5696 5693 5689 5686 5683 5680 5677 5673 5670 5667 5664 5661 5658 5655 5653 5651 5649 5647 5645 5644 5642 5642 5641 5641 5641 5642 5643 5645 5646 5648 5650 5652 5654 5656 5659 5661
5698 5695 5691 5688 5684 5680 5677 5674 5670 5667 5663 5660 5657 5653 5650 5648 5645 5643 5641 5639 5636 5634 5633 5631 5631 5630 5631 5631 5632 5634 5635 5637 5639 5641 5643 5645 5648 5650
5693 5690 5686 5683 5679 5675 5671 5668 5664 5660 5656 5652 5649 5646 5643 5640 5637 5634 5632 5630 5628 5625 5623 5622 5620 5619 5620 5621 5621 5622 5624 5626 5628 5629 5632 5634 5636 5638
5688 5685 5682 5678 5674 5670 5666 5662 5657 5653 5648 5645 5641 5638 5635 5632 5629 5626 5624 5622 5619 5617 5614 5612 5610 5609 5609 5610 5611 5611 5613 5615 5617 5619 5621 5623 5625 5628
5684 5680 5677 5673 5669 5665 5660 5656 5651 5646 5641 5637 5634 5630 5627 5624 5621 5618 5616 5613 5611 5608 5606 5603 5601 5600 5599 5599 5600 5601 5602 5604 5606 5608 5610 5612 5614 5616
5679 5676 5672 5668 5664 5660 5655 5650 5645 5640 5636 5631 5627 5624 5620 5616 5613 5611 5609 5606 5603 5600 5597 5595 5593 5592 5591 5591 5591 5591 5592 5594 5595 5597 5599 5601 5603 5605
5675 5672 5668 5664 5659 5654 5649 5645 5640 5635 5630 5626 5621 5617 5613 5610 5607 5604 5602 5599 5596 5593 5590 5587 5585 5584 5583 5583 5583 5584 5584 5585 5586 5587 5589 5591 5592 5594
5671 5667 5663 5659 5655 5650 5645 5640 5635 5630 5625 5620 5616 5612 5608 5604 5601 5598 5595 5592 5589 5586 5583 5580 5578 5577 5576 5576 5576 5576 5576 5577 5578 5578 5579 5581 5583 5584
5667 5663 5659 5655 5650 5645 5640 5635 5630 5625 5620 5615 5611 5607 5603 5599 5596 5593 5590 5586 5583 5580 5577 5574 5572 5570 5570 5569 5569 5569 5568 5568 5569 5569 5570 5571 5573 5575
5662 5659 5654 5650 5646 5641 5636 5631 5626 5621 5616 5611 5606 5602 5598 5595 5591 5588 5584 5581 5578 5575 5572 5569 5567 5565 5564 5563 5562 5562 5561 5561 5561 5562 5562 5563 5564 5566
5658 5654 5650 5646 5641 5637 5632 5627 5622 5617 5612 5607 5603 5598 5594 5590 5587 5583 5579 5576 5573 5570 5567 5564 5562 5560 5558 5557 5556 5555 5555 5554 5554 5554 5554 5555 5556 5557
5654 5650 5646 5641 5637 5632 5627 5623 5618 5613 5608 5604 5599 5595 5591 5587 5583 5579 5575 5571 5568 5565 5562 5559 5557 5554 5552 5551 5550 5550 5549 5548 5548 5548 5548 5548 5549 5549
5649 5646 5642 5637 5633 5628 5623 5619 5614 5609 5604 5600 5595 5591 5587 5583 5579 5575 5571 5567 5563 5560 5557 5554 5552 5550 5548 5546 5545 5544 5544 5543 5543 5542 5542 5543 5543 5543
5645 5641 5637 5633 5628 5624 5619 5614 5610 5605 5601 5596 5592 5588 5584 5580 5576 5571 5567 5563 5559 5555 5552 5550 5547 5545 5544 5542 5541 5540 5539 5538 5538 5537 5537 5537 5537 5537
Wind_Speed
19 20 21 21 21 21 21 21 21 22 23 24 25 27 27 28 28 28 29 29 30 31 32 33 35 35 36 36 36 37 37 38 38 38 39 40 40 40
19 19 19 19 20 20 20 21 22 22 23 23 24 26 26 28 28 28 29 28 29 30 32 33 33 34 35 36 36 36 37 38 38 38 40 40 41 40
18 18 18 18 18 19 19 20 21 23 23 23 23 24 25 26 27 27 28 28 28 29 30 31 32 33 34 35 35 36 37 38 39 39 40 41 42 41
16 17 17 17 17 18 19 19 20 21 21 22 23 23 24 25 26 27 28 28 29 29 30 31 32 33 34 35 36 37 38 38 38 40 40 42 42 42
15 15 16 16 16 17 18 18 20 20 20 21 22 24 24 26 27 28 28 28 29 29 30 31 32 33 34 35 36 37 38 39 39 39 40 41 42 43
15 15 15 16 17 18 17 18 19 20 21 22 22 23 24 25 26 27 27 28 29 30 30 31 33 34 34 35 36 37 38 39 39 39 40 41 42 43
14 14 15 17 18 18 18 19 20 21 21 22 22 22 23 24 25 26 27 28 29 30 31 33 34 34 35 35 36 37 38 39 40 40 40 41 42 43
15 15 16 17 18 19 19 19 20 20 21 21 22 21 22 23 24 25 26 28 29 30 31 32 34 35 35 36 35 36 37 38 39 40 40 41 42 44
16 17 18 19 19 20 20 21 20 21 22 22 22 22 22 23 24 24 25 27 28 29 30 31 32 33 33 34 34 34 35 36 37 38 39 40 40 42
17 18 19 20 21 21 21 22 22 22 22 22 22 22 22 23 23 24 25 26 27 28 29 30 32 32 33 33 33 33 34 34 36 37 38 39 40 41
18 19 20 21 21 22 22 22 22 23 23 23 23 23 23 23 24 25 25 25 26 27 28 30 31 32 33 33 34 34 35 35 36 37 38 38 39 40
18 20 20 21 21 21 22 23 23 24 24 24 23 23 23 24 24 24 25 25 26 26 26 28 29 31 32 33 34 35 35 36 36 36 37 38 39 40
19 19 19 20 21 22 23 24 24 25 25 24 23 23 23 23 23 24 24 24 25 25 25 26 27 28 30 31 32 33 34 35 35 36 36 37 39 40
19 19 19 20 21 23 24 24 24 24 23 23 22 23 23 22 22 22 23 24 24 25 25 25 26 26 27 29 30 31 33 34 35 35 36 37 38 39
18 19 20 21 22 23 23 23 24 23 22 22 21 21 21 21 20 20 20 22 23 24 24 24 24 24 25 26 27 29 30 31 33 34 34 35 35 36
18 18 19 20 22 22 22 23 24 23 23 22 21 21 20 20 20 19 20 22 23 24 23 22 22 23 23 24 25 26 28 29 30 32 32 33 34 34
18 19 19 20 21 22 23 23 23 23 23 22 21 21 21 20 20 19 20 21 22 22 21 21 21 22 22 22 23 24 25 26 28 30 31 32 33 33
18 19 20 21 22 23 23 23 23 23 23 22 21 21 20 20 20 19 19 20 20 20 20 19 19 20 20 22 23 23 24 25 25 27 28 30 31 31
18 19 21 21 21 22 22 23 23 23 22 21 21 20 20 20 19 19 19 19 19 19 19 19 18 18 19 20 21 21 22 22 23 24 25 26 27 28
19 20 20 21 21 21 22 22 23 23 22 21 21 20 20 20 20 20 20 19 19 19 19 18 17 18 19 19 20 20 19 19 20 21 22 23 24 25
19 20 21 21 21 21 22 22 22 23 22 22 21 21 21 21 21 20 20 20 19 18 17 17 17 16 17 17 17 17 18 17 17 18 19 20 21 23
20 20 20 20 21 22 22 23 23 23 23 22 22 21 21 21 21 21 21 20 19 18 17 17 16 15 15 14 14 15 16 16 16 16 17 19 20 21
20 20 21 21 21 22 23 23 23 23 23 22 22 21 22 22 22 22 21 20 19 18 16 15 15 15 14 14 14 13 14 15 15 15 16 17 19 20
Wind_Direction
288 288 288 288 289 289 287 283 281 279 278 275 274 271 267 263 261 264 263 262 261 261 259 257 255 253 252 251 251 251 250 249 248 247 246 245 244 244
292 292 290 290 289 287 286 286 286 284 282 280 276 273 267 265 263 263 264 266 263 262 261 259 257 254 252 252 251 251 251 250 248 248 246 245 244 244
295 294 292 291 290 290 289 290 290 287 284 281 278 274 270 268 266 267 267 268 266 264 262 260 259 256 254 253 252 252 253 251 250 247 246 245 244 244
301 300 298 296 295 294 293 293 294 293 288 282 278 279 277 273 272 271 270 268 267 265 263 261 260 258 255 254 253 252 253 252 251 247 245 245 244 242
305 305 304 304 302 302 301 299 298 297 294 289 284 282 279 276 273 273 271 270 268 266 265 262 261 259 257 255 254 253 253 252 251 248 246 246 245 243
310 310 310 310 307 305 303 303 303 302 299 293 288 283 281 279 275 273 272 270 269 268 266 264 261 260 258 257 255 254 253 252 249 248 247 247 246 244
312 310 311 313 312 309 305 304 304 304 301 297 292 288 286 282 279 276 274 273 272 270 268 266 263 261 259 258 256 255 254 252 250 249 248 247 245 243
312 311 311 312 312 311 310 309 308 307 303 298 296 292 289 286 283 280 278 276 275 273 272 269 265 262 260 259 257 255 254 254 252 250 248 247 245 244
311 310 309 310 310 311 311 310 308 307 305 301 298 294 291 288 285 283 281 279 278 278 275 272 268 265 263 262 259 256 255 254 253 253 250 248 246 245
312 311 311 310 311 310 310 310 309 306 304 303 300 296 293 290 287 285 283 282 282 281 277 272 269 266 263 262 260 258 257 256 254 252 251 251 249 247
310 311 312 314 315 313 311 311 309 307 305 304 302 298 296 294 291 288 286 286 287 285 280 275 271 267 264 261 259 259 258 256 255 252 250 251 251 250
311 312 314 315 316 316 314 312 311 310 307 305 303 300 298 295 291 290 289 289 290 289 285 280 275 268 264 261 260 259 257 256 255 253 252 252 251 251
313 314 315 316 315 315 315 315 314 312 309 306 303 301 300 298 294 291 290 290 290 289 287 282 277 272 265 263 260 258 257 257 256 253 252 252 252 251
314 315 317 318 318 318 318 318 318 316 313 309 306 303 302 300 296 292 292 292 292 291 287 283 278 273 267 263 260 259 258 257 255 253 252 251 253 252
317 317 319 321 322 322 322 323 324 322 318 315 312 310 308 305 303 298 297 297 295 294 291 285 279 273 270 267 263 260 260 259 256 254 252 252 252 253
319 318 320 323 326 326 326 325 325 325 323 320 317 316 314 311 307 303 300 298 297 298 297 290 281 275 270 269 266 264 262 260 259 256 252 252 252 254
321 321 323 326 327 328 329 328 327 327 326 323 320 319 317 315 312 308 306 304 301 302 300 293 284 277 272 270 270 268 265 263 260 257 254 255 254 255
320 322 324 326 328 331 332 331 331 330 328 324 321 319 318 317 316 313 310 308 306 304 301 298 291 284 277 274 274 273 270 267 264 261 258 256 254 253
319 321 323 325 327 330 332 332 332 331 331 329 328 325 322 320 319 318 315 311 309 306 304 301 296 291 285 283 280 275 271 268 265 263 260 257 255 254
318 320 322 324 325 328 331 332 332 332 332 332 331 330 328 325 324 323 320 317 315 312 308 303 299 296 292 285 281 277 273 270 267 264 262 258 257 256
319 321 322 325 327 329 330 331 332 333 333 332 331 330 330 330 329 328 325 321 317 313 310 307 303 299 295 289 283 278 273 267 265 267 265 260 258 258
321 322 324 326 327 329 331 332 333 334 334 334 333 331 330 330 330 330 330 327 321 314 310 308 308 305 301 298 291 281 273 269 270 270 267 263 260 259
321 322 324 325 327 328 329 330 331 331 331 331 330 330 330 331 331 330 330 328 324 319 313 310 309 306 304 301 299 290 279 273 271 270 268 269 267 264